Location: Arbon
(43.0005°N, 0.7472°E)
Time: 09:25:58
(UTC+00:00)

SR - Pass Details

Date: 01 December 2020
Orbit: 575 x 880 km, 66.7° (Epoch: 21 January)

Event Time Altitude Azimuth Distance (km) Brightness Sun altitude
Rises 03:20:07 0° 322° (NW) 3,228 - -41.1°
Reaches altitude 10° 03:22:32 10° 316° (NW) 2,345 - -40.7°
Maximum altitude 03:27:37 43° 246° (WSW) 1,153 - -39.8°
Drops below altitude 10° 03:33:01 10° 177° (S) 2,483 - -38.8°
Sets 03:35:39 0° 171° (S) 3,438 - -38.3°
